CAPE
1109 1116 1129 1099 960 860 766 726 843 886 837 858 871 560 744 671 567 546 478 211 319 334 332 307 214 164 165 151 164 97 293 506 544 644 543 599 686 1114 1260 1050 980 776 536 329 248 293 294 238 236 46 25 9 0 0 0 0 0 0 21 212 263 59 1 0 0 0 0 0 0 0 0 0 0 0 0 0 0 0 0 0 0 0 0 0 1
1044 1029 644 652 786 812 737 1013 905 622 682 623 916 551 616 578 473 536 442 357 177 337 313 353 330 204 197 153 39 134 258 346 682 562 544 527 507 889 1190 1039 1054 1076 834 501 350 388 364 316 308 195 43 24 0 0 0 0 0 0 1 177 342 102 18 0 0 0 0 0 0 0 0 0 0 0 0 0 1 0 0 0 0 0 0 0 0
956 847 971 855 874 777 841 1239 883 875 906 981 1141 1023 442 614 485 519 363 356 224 228 319 223 211 259 254 218 201 0 214 376 464 638 546 584 500 675 1072 1221 1124 1281 1170 772 634 440 472 435 409 324 175 9 2 6 0 0 0 0 0 591 416 149 60 18 0 0 0 0 0 0 0 0 0 0 0 0 0 1 0 0 0 0 0 1 0
968 817 844 933 1108 1272 1320 1552 1055 1389 1372 1345 948 1189 632 342 342 381 511 313 383 341 338 212 315 338 356 304 294 349 54 272 362 556 606 652 503 550 703 925 1211 1389 1344 1050 1057 841 579 574 517 483 310 123 55 12 1 2 4 0 0 484 430 245 149 110 10 0 0 0 0 0 0 0 0 0 0 0 0 0 0 0 0 0 0 0 1
885 943 906 931 1154 1348 1396 1648 1455 1701 1281 1068 1310 1249 1070 438 368 309 437 391 382 406 297 305 369 453 454 446 297 378 343 146 283 370 720 610 540 513 489 611 931 1235 1160 1390 1296 1160 1019 838 650 545 459 253 264 102 16 2 7 0 0 180 364 309 342 226 105 9 0 0 0 0 0 0 0 0 0 0 0 0 0 0 0 0 0 0 0
943 969 1004 949 1025 1202 1521 1692 1836 1747 1380 1236 1136 1214 1053 1043 522 422 577 335 391 437 408 591 650 580 622 597 576 540 340 325 385 301 556 622 544 500 496 406 584 804 923 1577 1338 1233 1093 1168 845 701 582 435 323 250 158 54 12 4 0 0 282 236 190 228 193 66 0 0 0 0 0 0 0 0 0 0 0 0 0 0 0 0 0 0 0
1061 1079 1052 940 1151 1403 1244 1445 1755 1493 1404 1334 1374 1278 1110 943 772 489 287 314 572 723 690 719 594 676 639 533 488 554 410 372 333 164 270 345 626 617 585 458 355 516 594 1002 1244 1156 1082 1160 1388 990 728 556 443 339 335 232 68 31 7 0 276 152 100 80 228 192 72 28 0 0 0 0 0 0 0 0 0 0 0 0 0 0 0 0 0
743 1012 1034 1350 1397 1310 1146 1553 1359 1324 1421 1269 1179 1201 1252 1259 1168 691 472 406 626 729 666 495 554 598 405 468 506 500 440 304 314 266 362 287 389 722 596 533 465 347 534 656 866 960 1007 1044 1234 1160 1222 926 587 543 443 357 183 93 119 84 19 217 127 71 151 316 210 124 33 0 1 1 0 1 0 0 0 0 0 0 0 0 0 0 0
1082 1129 1523 1428 1367 1060 1395 1580 1560 1492 1390 1327 1228 1206 1398 1139 1039 972 599 625 751 869 805 811 752 734 604 568 494 378 520 401 341 381 447 257 273 301 335 698 616 795 550 384 540 714 956 997 1142 1130 1162 1184 987 770 637 578 388 184 239 256 104 36 81 72 113 172 262 236 98 32 2 3 1 2 0 0 0 0 0 0 0 0 0 0 0
671 1134 1426 1215 1037 1010 1177 1518 1460 1523 1412 1295 1102 1236 1333 1143 1046 944 737 802 886 890 871 910 973 995 1198 1209 1144 862 731 666 527 479 290 223 252 293 274 271 234 633 539 382 380 393 660 866 1079 1110 1057 1072 1055 1139 791 764 621 497 482 534 329 94 60 139 135 154 219 339 231 91 2 0 2 1 1 0 0 0 0 0 0 0 0 0 0
923 876 1198 1278 1070 1009 1213 1338 1551 1400 1215 1165 1016 1346 1451 1292 983 812 754 675 722 909 886 802 815 1010 1112 1097 1084 819 922 687 659 346 223 269 235 258 267 240 165 228 302 536 455 349 337 571 830 982 1005 989 1054 1122 1083 1060 824 697 637 754 513 358 128 136 172 188 161 281 283 181 45 9 0 0 0 0 0 0 0 0 0 0 0 0 0
962 736 1016 1130 1223 1274 1375 1465 1355 1358 1173 1032 965 1225 1291 1237 911 724 813 741 582 680 692 679 654 598 660 599 660 690 783 759 490 209 391 116 108 154 134 181 42 61 320 411 474 490 476 413 512 752 876 918 1005 957 1117 1057 985 1119 797 700 683 670 435 308 312 212 173 178 206 244 179 39 0 0 0 0 0 0 0 0 0 0 0 0 0
928 745 850 1668 1404 1398 1402 1414 1400 1337 1323 1080 1025 1102 1028 1049 884 766 724 657 566 581 656 564 564 664 620 663 479 712 673 730 280 148 475 106 24 0 13 106 99 67 140 238 246 566 825 712 641 510 609 757 860 984 907 903 849 948 1257 986 891 740 697 663 584 436 209 167 174 216 287 139 18 0 0 0 0 1 1 0 0 0 0 0 0
156 746 1094 1133 1326 1319 1144 1054 1248 1270 1272 1169 1074 970 823 843 829 792 762 658 565 570 420 514 435 421 564 446 81 388 904 501 62 20 580 257 10 0 25 67 52 10 156 110 182 164 357 932 896 740 504 411 584 775 935 906 828 822 1134 1340 1161 1099 976 824 1011 797 478 236 163 202 386 240 48 7 0 0 0 0 1 1 0 0 0 0 0
0 433 803 1072 1273 1319 1215 1110 1130 1129 1076 1043 1003 951 759 876 752 756 658 587 620 532 394 477 448 493 430 210 22 2 272 471 534 253 564 209 57 48 8 57 54 12 28 113 138 290 110 285 523 518 389 490 529 585 626 725 797 777 864 1094 1380 1308 1299 1081 1063 1212 899 481 247 220 400 357 139 58 18 1 0 0 0 0 0 0 0 0 0
0 0 42 742 920 1063 1053 868 892 955 922 864 938 948 805 823 742 730 539 547 420 509 473 567 418 330 385 19 292 54 0 399 210 626 661 439 1 8 156 201 55 33 28 16 89 372 315 242 175 192 244 273 346 426 578 544 553 613 716 777 858 1270 1433 1388 970 996 1284 969 557 332 281 477 309 160 70 32 4 0 0 0 0 0 0 0 0
0 0 0 0 285 636 604 547 610 604 720 836 867 796 787 779 616 581 565 509 478 516 218 578 280 450 124 34 0 0 21 371 176 517 372 387 332 110 296 337 109 46 219 139 203 436 450 828 471 186 144 174 221 331 518 646 751 737 530 543 656 747 1061 1600 1702 1207 970 1254 1119 793 512 416 554 330 163 87 50 14 0 0 0 0 0 0 0
0 0 0 0 0 0 0 0 0 63 776 874 943 706 753 749 734 708 652 500 514 438 373 394 357 357 398 517 432 28 136 390 23 35 382 550 227 214 169 283 77 300 275 247 205 381 594 353 572 586 373 289 250 328 300 578 678 624 562 424 393 503 638 848 1474 1628 1482 1029 1175 1259 1094 523 583 459 316 153 100 50 28 1 0 0 0 0 0
0 0 0 0 0 0 0 0 0 0 0 0 0 222 292 703 506 373 562 512 461 359 182 199 337 124 277 308 276 205 376 262 147 90 7 392 285 1 95 156 78 52 143 95 15 27 304 531 448 483 478 436 317 363 346 366 525 471 453 444 464 28 293 436 495 1271 1665 1558 1194 1141 1269 1089 815 536 394 313 167 101 54 31 2 0 0 0 0
0 0 0 0 0 0 0 0 0 0 0 0 0 0 0 0 0 0 6 40 5 4 0 0 102 18 19 1 6 77 354 314 281 100 11 7 7 520 426 474 16 14 40 0 0 0 1 0 136 581 523 258 272 274 260 215 276 316 391 327 326 449 493 429 47 278 742 1514 1778 1334 1230 1402 1249 811 724 642 575 488 282 109 48 15 2 1 0
0 0 0 0 0 0 0 0 0 0 0 0 0 0 0 0 0 0 0 0 3 2 0 3 7 0 0 18 3 44 61 35 86 25 63 6 0 7 94 561 445 308 206 30 9 2 0 0 3 106 264 274 256 249 233 165 141 185 190 316 353 383 571 628 569 34 168 212 964 1690 1338 1078 975 1116 754 673 614 580 535 475 370 258 34 10 1
0 0 0 0 0 0 0 0 0 0 0 0 0 0 0 0 0 0 0 0 0 0 0 0 0 0 12 77 45 34 199 184 226 111 63 9 0 0 0 0 0 5 443 376 224 62 0 0 0 0 2 81 224 271 252 236 199 179 172 200 70 56 322 391 408 403 195 0 0 279 1172 1706 1477 1137 1110 870 741 589 540 534 540 425 329 64 22
0 0 0 0 0 0 0 0 0 0 0 0 0 0 0 0 0 0 0 0 0 0 0 0 0 0 0 0 0 0 0 0 0 0 0 0 0 0 0 0 0 0 0 48 39 8 2 3 18 16 10 38 106 208 263 279 336 361 305 422 503 452 368 417 469 443 386 254 192 236 297 766 1265 1666 1380 1239 974 944 632 598 582 560 441 290 169
0 0 0 0 0 0 0 0 0 0 0 0 0 0 0 0 0 0 0 0 0 0 0 0 0 0 0 0 0 0 0 0 0 0 0 0 0 0 0 0 0 0 0 0 0 0 0 0 0 2 2 1 1 0 10 116 268 487 489 586 569 488 581 676 679 701 720 680 598 530 542 574 940 1210 1555 1287 1133 1069 873 825 775 720 639 541 408
0 0 0 0 0 0 0 0 0 0 0 0 0 0 0 0 0 0 0 0 0 0 0 0 0 0 0 0 0 0 0 0 0 0 0 0 0 0 0 0 0 0 0 0 0 0 0 0 0 0 0 0 0 0 0 31 267 495 670 643 476 442 474 519 482 396 326 301 510 439 304 253 752 1122 1362 1517 1229 969 808 916 791 770 671 532 431
0 0 0 0 0 0 0 0 0 0 0 0 0 0 0 0 0 0 0 0 0 0 0 0 0 0 0 0 0 0 0 0 0 0 0 0 0 0 0 0 0 0 0 0 0 0 0 0 0 0 0 0 0 0 0 4 247 359 482 416 252 199 216 253 138 83 74 0 0 31 250 218 210 397 758 1065 1194 1188 1179 934 908 843 827 689 555
0 0 0 0 0 0 0 0 0 0 0 0 0 0 0 0 0 0 0 0 0 0 0 0 0 0 0 0 0 0 0 0 0 0 0 0 0 0 0 0 0 0 0 0 0 0 0 0 0 0 0 0 0 0 0 67 240 346 255 187 252 228 168 12 54 0 0 0 0 0 0 0 90 179 147 129 404 640 869 1087 1055 1056 944 887 678
0 0 0 0 0 0 0 0 0 0 0 0 0 0 0 0 0 0 0 0 0 0 0 0 0 0 0 0 0 0 0 0 0 0 0 0 0 0 0 0 0 0 0 0 0 0 0 0 0 0 0 0 0 0 0 40 87 9 18 114 232 230 50 4 0 0 0 0 0 0 0 0 0 0 0 19 56 127 238 662 950 981 928 925 810
0 0 0 0 0 0 0 0 0 0 0 0 0 0 0 0 0 0 0 0 0 0 0 0 0 0 0 0 0 0 0 0 0 0 0 0 0 0 0 0 0 0 0 0 0 0 0 0 0 0 0 0 0 0 0 0 1 0 0 0 0 0 0 0 0 0 0 0 0 0 0 0 0 0 0 0 0 0 68 115 444 754 938 954 917
0 0 0 0 0 0 0 0 0 0 0 0 0 0 0 0 0 0 0 0 0 0 0 0 0 0 0 0 0 0 0 0 0 0 0 0 0 0 0 0 0 0 0 0 0 0 0 0 0 0 0 0 0 0 0 0 0 0 0 0 0 0 0 0 0 0 0 0 0 0 0 0 0 0 0 0 0 0 0 0 105 247 580 858 955
0 0 0 0 0 0 0 0 0 0 0 0 0 0 0 0 0 0 0 0 0 0 0 0 0 0 0 0 0 0 0 0 0 0 0 0 0 0 0 0 0 0 0 0 0 0 0 0 0 0 0 0 0 0 0 0 0 0 0 0 0 0 0 0 0 0 0 0 0 0 0 0 0 0 0 0 0 0 0 0 0 154 208 355 653
0 0 0 0 0 0 0 0 0 0 0 0 0 0 0 0 0 0 0 0 0 0 0 0 0 0 0 0 0 0 0 0 0 0 0 0 0 0 0 0 0 0 0 0 0 0 0 0 0 0 0 0 0 0 0 0 0 0 0 0 0 0 0 0 0 0 0 0 0 0 0 0 0 0 0 0 0 0 0 0 0 0 32 34 58
0 0 10 2 0 0 0 0 0 0 0 0 0 0 0 0 0 0 0 0 0 0 0 0 0 0 0 0 0 0 0 0 0 0 0 0 0 0 0 0 0 0 0 0 0 0 0 0 0 0 0 0 0 0 0 0 0 0 0 0 0 0 0 0 0 0 0 0 0 0 0 0 0 0 0 0 0 0 0 0 0 0 0 0 0
0 0 10 14 3 4 3 0 0 0 0 0 0 0 0 0 0 0 0 0 0 0 0 0 0 0 0 0 0 0 0 0 0 0 0 0 0 0 0 0 0 0 0 0 0 0 0 0 0 0 0 0 0 0 0 0 0 0 0 0 0 0 0 0 0 0 0 0 0 0 0 0 0 0 0 0 0 0 0 0 0 0 0 0 0
310 239 211 112 15 10 26 1 0 0 0 0 0 0 0 0 0 0 0 0 0 0 0 0 0 0 0 0 0 0 0 0 0 0 0 0 0 0 0 0 0 0 0 0 0 0 0 0 0 0 0 0 0 0 0 0 0 0 0 0 0 0 0 0 0 0 0 0 0 0 0 0 0 0 0 0 0 0 0 0 0 0 0 0 0
525 568 279 206 181 195 198 173 171 27 8 0 0 0 0 0 0 0 0 0 0 0 0 0 0 0 0 0 0 0 0 0 0 0 0 0 0 0 0 0 0 0 0 0 0 0 0 0 0 0 0 0 0 0 0 0 0 0 0 0 0 0 0 0 0 0 0 0 0 0 0 0 0 0 0 0 0 0 0 0 0 0 0 0 0
455 610 618 451 267 274 270 247 245 236 200 161 150 88 0 0 3 5 3 2 0 0 0 0 0 0 0 0 0 0 0 0 0 0 0 0 0 0 0 0 0 0 0 0 0 0 0 0 0 0 0 0 0 0 0 0 0 0 0 0 0 0 0 0 0 0 0 0 0 0 0 0 0 0 0 0 0 0 0 0 0 0 0 0 0
385 400 542 501 474 369 87 304 296 252 230 235 222 205 192 97 0 147 134 83 1 2 0 0 0 0 0 1 0 0 0 0 0 0 0 0 0 0 0 0 0 0 0 0 0 0 0 0 0 0 0 0 0 0 0 0 0 0 0 0 0 0 0 0 0 0 0 0 0 0 0 0 0 0 0 0 0 0 0 0 11 5 2 0 0
166 97 206 172 152 156 166 131 250 289 274 264 273 264 256 229 199 0 0 0 0 0 0 0 0 0 5 14 18 22 16 4 0 0 0 0 0 0 0 0 0 0 0 0 0 0 0 0 0 0 0 0 0 0 0 0 0 0 0 0 0 0 0 0 0 0 0 0 0 0 0 0 0 0 0 0 0 0 0 0 0 14 6 0 0
449 424 221 116 61 14 86 130 68 36 348 318 303 298 290 285 267 245 213 200 52 0 0 0 0 0 0 3 22 34 29 22 13 0 0 0 0 0 0 0 0 0 0 0 0 0 0 0 0 0 0 0 0 0 0 0 0 0 0 0 0 0 0 0 0 0 0 0 0 0 0 0 0 0 0 0 0 0 0 0 0 3 5 0 0
518 443 377 122 100 188 194 162 170 87 329 346 331 334 318 309 292 267 235 213 186 0 0 0 0 0 0 0 6 2 8 11 8 0 0 0 0 0 0 0 0 0 0 0 0 0 0 0 0 0 0 0 0 0 0 0 0 0 0 0 0 0 0 0 0 0 0 0 0 0 0 0 0 0 0 0 0 0 0 0 0 0 1 1 4
471 432 469 465 392 318 303 246 383 380 388 368 316 318 328 303 274 276 271 254 222 169 29 0 0 0 0 0 10 16 6 0 3 0 0 0 0 0 0 0 0 0 0 0 0 0 0 0 0 0 0 0 0 0 0 0 0 0 0 0 0 0 0 0 0 0 0 0 0 0 0 0 0 0 0 0 0 0 0 0 0 0 0 0 4
646 640 592 524 490 476 454 413 396 459 606 633 526 341 270 245 214 270 277 262 230 194 128 0 0 0 0 0 48 30 9 1 0 0 0 0 0 0 0 0 0 0 0 0 0 0 0 0 0 0 0 0 0 0 0 0 0 0 0 0 0 0 0 0 0 0 0 0 0 0 0 0 0 0 0 0 0 0 0 0 0 0 0 0 0
674 782 709 643 617 644 645 707 724 711 674 702 710 613 497 410 326 244 224 216 214 189 142 123 28 0 0 50 65 28 14 9 3 0 0 0 0 0 0 0 0 0 0 0 0 0 0 0 0 0 0 0 0 0 0 0 0 0 0 0 0 0 0 0 0 0 0 0 0 0 0 0 0 0 0 0 0 0 0 0 0 0 0 0 0
813 999 997 905 849 783 786 881 909 909 969 980 930 857 764 632 506 378 262 265 230 150 31 0 0 0 0 15 41 16 14 11 4 4 5 4 0 0 0 0 0 0 0 0 0 0 0 0 0 0 0 0 0 0 0 0 0 0 0 0 0 0 0 0 0 0 0 0 0 0 0 0 0 0 0 0 0 0 0 0 0 0 0 0 0
743 908 960 924 803 706 577 526 431 548 679 793 845 839 769 727 643 376 343 374 280 174 103 91 0 0 28 5 23 0 2 9 1 2 2 0 0 0 0 0 0 0 0 0 0 0 0 0 0 0 0 0 0 0 0 0 0 0 0 0 0 0 0 0 0 0 0 0 0 0 0 0 0 0 0 0 0 0 0 0 0 0 0 0 0
179 336 577 515 436 304 247 239 340 432 460 466 460 508 585 656 672 405 242 168 42 162 29 0 0 0 3 5 6 1 2 14 5 7 7 4 1 0 0 0 0 0 0 0 0 0 0 0 0 0 0 0 0 0 0 0 0 0 0 0 0 0 0 0 0 0 0 0 0 0 0 0 0 0 0 0 0 0 0 0 0 0 0 0 0
188 166 295 416 386 304 233 206 217 265 279 274 279 274 297 342 392 371 319 266 234 170 114 24 0 1 4 1 1 0 5 5 8 12 8 4 3 1 0 0 0 0 0 0 0 0 0 0 0 0 0 0 0 0 0 0 0 0 0 0 0 0 0 0 0 0 0 0 0 0 0 0 0 0 0 0 0 0 0 0 0 0 0 0 0
256 233 204 173 214 318 345 341 344 349 311 259 246 256 259 251 263 259 84 0 0 0 0 2 1 2 5 0 4 1 4 8 18 13 18 15 8 6 2 0 0 0 0 0 0 0 0 0 0 0 0 0 0 0 0 0 0 0 0 0 0 0 0 0 0 0 0 0 0 0 0 0 0 0 0 0 0 0 0 0 0 0 0 0 0
194 250 258 36 0 132 331 410 406 359 312 246 210 210 216 230 249 267 108 0 0 1 1 1 2 2 0 0 0 0 0 13 16 24 24 20 14 5 0 0 0 0 0 0 0 0 0 0 0 0 0 0 0 0 0 0 0 0 0 0 0 0 0 0 0 0 0 0 0 0 0 0 0 0 0 0 0 0 0 0 0 0 0 0 0
167 190 170 23 0 0 63 220 229 216 225 235 231 224 185 181 170 28 0 3 16 1 0 0 4 8 7 1 12 17 20 20 21 23 23 19 11 3 0 0 0 0 0 0 0 0 0 0 0 0 0 0 0 0 0 0 0 0 0 0 0 0 0 0 0 0 0 0 0 0 0 0 0 0 0 0 0 0 0 0 0 0 0 0 1
Wind_Speed
17 15 20 18 15 12 14 11 10 11 11 9 10 12 13 13 14 14 13 13 15 18 19 20 20 20 20 20 17 nan 24 29 29 30 31 33 32 29 31 32 33 34 34 33 31 29 28 28 27 nan nan nan nan nan nan nan nan nan nan 20 20 nan nan nan nan nan nan nan nan nan nan nan nan nan nan nan nan nan nan nan nan nan nan nan nan
18 18 19 14 12 12 13 10 9 9 10 9 9 10 10 11 13 15 16 17 18 17 19 20 22 22 22 21 nan 20 19 25 27 31 32 34 33 29 27 29 31 33 34 33 31 30 29 29 28 27 nan nan nan nan nan nan nan nan nan 23 22 22 nan nan nan nan nan nan nan nan nan nan nan nan nan nan nan nan nan nan nan nan nan nan nan
19 16 14 14 13 11 11 10 10 8 10 10 12 13 15 17 15 16 17 18 19 17 20 20 21 21 20 20 19 nan 19 19 26 30 32 34 34 30 26 26 28 30 32 33 32 31 30 30 29 29 28 nan nan nan nan nan nan nan nan 28 25 23 nan nan nan nan nan nan nan nan nan nan nan nan nan nan nan nan nan nan nan nan nan nan nan
17 12 12 14 11 11 11 11 9 10 13 12 12 15 16 15 16 17 16 19 22 24 23 23 21 19 20 19 20 19 nan 17 19 28 31 34 34 30 26 25 26 28 30 32 32 32 31 30 30 30 29 29 nan nan nan nan nan nan nan 28 26 24 22 21 nan nan nan nan nan nan nan nan nan nan nan nan nan nan nan nan nan nan nan nan nan
15 10 10 7 9 10 11 12 12 13 13 13 13 14 16 16 16 17 15 19 22 22 21 21 24 23 24 23 22 23 20 19 17 26 28 32 32 30 28 27 27 27 28 30 32 33 31 31 30 30 30 29 28 28 nan nan nan nan nan 27 28 26 24 23 23 nan nan nan nan nan nan nan nan nan nan nan nan nan nan nan nan nan nan nan nan
14 9 7 4 7 14 14 13 15 15 14 14 14 13 16 17 16 17 17 19 19 19 19 20 21 21 21 21 20 21 23 23 25 23 26 30 32 32 31 29 29 28 28 28 31 32 31 31 30 31 31 29 28 27 27 nan nan nan nan nan 29 27 25 24 23 nan nan nan nan nan nan nan nan nan nan nan nan nan nan nan nan nan nan nan nan
15 10 5 2 7 12 15 15 17 16 14 14 14 13 15 16 18 19 19 19 19 20 19 18 19 19 19 22 20 20 22 25 25 26 29 29 30 34 32 31 30 29 28 29 29 28 29 30 31 30 31 30 29 27 27 27 nan nan nan nan 29 28 26 nan 24 24 nan nan nan nan nan nan nan nan nan nan nan nan nan nan nan nan nan nan nan
20 13 11 11 13 14 14 15 17 18 15 14 14 13 15 18 17 19 21 19 20 19 20 19 18 18 19 21 21 20 22 22 23 25 26 29 33 33 32 32 31 30 28 29 28 27 26 29 30 29 31 30 30 28 28 29 28 nan 27 nan nan 27 26 nan 24 23 24 23 nan nan nan nan nan nan nan nan nan nan nan nan nan nan nan nan nan
15 8 12 14 16 17 15 15 17 18 16 14 15 14 16 19 18 18 19 19 20 21 20 20 20 19 20 21 21 22 22 21 19 19 23 28 30 35 35 34 33 31 30 30 29 28 26 25 27 28 29 32 31 29 30 30 29 28 27 27 27 nan nan nan 24 23 23 24 nan nan nan nan nan nan nan nan nan nan nan nan nan nan nan nan nan
17 10 12 16 17 18 17 15 17 17 16 15 15 14 15 18 18 17 18 19 19 22 21 20 20 21 20 20 20 23 22 21 19 18 22 23 27 31 34 37 38 36 33 32 31 31 30 25 24 26 27 29 30 30 29 29 28 27 26 26 26 nan nan 25 24 23 23 24 24 nan nan nan nan nan nan nan nan nan nan nan nan nan nan nan nan
26 20 19 19 18 17 18 17 17 16 15 15 15 16 16 15 18 17 17 18 19 19 19 20 20 19 20 19 20 21 21 21 20 21 22 22 25 28 31 34 36 38 38 36 35 33 31 30 29 29 28 26 28 29 28 26 26 25 25 25 26 27 26 26 25 25 24 24 23 25 nan nan nan nan nan nan nan nan nan nan nan nan nan nan nan
27 25 24 21 20 19 19 19 19 17 17 17 16 17 16 16 17 18 19 19 18 16 16 17 17 18 19 19 19 19 20 20 20 20 21 23 24 26 29 29 nan nan 38 41 39 35 35 33 30 28 29 26 24 26 26 25 25 24 23 26 25 27 27 27 26 26 25 24 24 25 28 nan nan nan nan nan nan nan nan nan nan nan nan nan nan
25 26 24 24 23 22 21 20 18 18 19 18 17 16 16 16 15 16 17 18 16 14 14 16 17 16 16 17 17 17 17 18 18 19 22 23 nan nan nan 28 nan nan 33 37 41 41 39 36 32 31 29 29 26 23 23 23 24 24 23 23 23 24 25 26 25 25 25 24 23 24 28 28 nan nan nan nan nan nan nan nan nan nan nan nan nan
26 26 25 24 24 24 23 21 19 19 19 19 18 18 15 16 16 17 17 18 16 15 14 15 14 15 16 15 nan 15 16 16 nan nan 21 23 nan nan nan nan nan nan 30 34 39 44 44 41 40 37 34 31 30 29 25 23 23 22 22 21 20 21 21 23 24 24 24 25 24 24 28 28 nan nan nan nan nan nan nan nan nan nan nan nan nan
nan 26 26 24 24 24 24 23 22 22 21 20 20 20 17 17 18 19 18 17 17 16 16 16 16 17 17 17 nan nan 16 18 18 20 22 24 nan nan nan nan nan nan nan 31 34 39 44 43 40 39 37 33 31 29 26 23 22 20 20 19 19 17 18 18 22 23 24 24 24 24 27 28 27 nan nan nan nan nan nan nan nan nan nan nan nan
nan nan nan 24 23 24 23 22 21 21 21 20 20 20 19 19 19 19 20 18 16 16 18 19 19 19 17 nan 16 nan nan 19 20 22 23 24 nan nan 24 25 nan nan nan nan nan 33 38 40 41 41 38 37 35 32 28 26 22 19 18 17 17 17 15 15 15 19 20 22 23 23 24 25 25 25 nan nan nan nan nan nan nan nan nan nan nan
nan nan nan nan 22 22 22 21 21 20 21 20 20 20 19 19 20 21 19 19 18 18 19 19 20 19 19 nan nan nan nan 21 23 22 23 24 24 25 25 26 28 nan 27 26 29 28 31 35 39 41 40 39 37 36 36 32 29 28 24 19 17 16 16 13 13 12 15 18 19 20 21 22 24 23 24 nan nan nan nan nan nan nan nan nan nan
nan nan nan nan nan nan nan nan nan nan 20 21 22 22 21 21 19 21 20 19 21 21 20 20 21 20 20 19 20 nan 22 22 nan nan 21 23 24 23 23 24 nan 24 21 23 27 27 29 31 34 39 41 41 39 38 38 38 36 32 30 26 20 17 15 14 12 12 11 13 15 15 16 19 22 21 22 22 nan nan nan nan nan nan nan nan nan
nan nan nan nan nan nan nan nan nan nan nan nan nan 22 21 21 21 21 20 21 23 22 22 21 20 20 20 20 21 21 22 22 22 nan nan 21 22 nan nan 19 nan nan 19 nan nan nan 26 28 29 33 37 40 41 41 40 39 38 36 33 29 26 nan 18 15 14 13 12 11 12 15 15 17 20 22 21 22 22 21 nan nan nan nan nan nan nan
nan nan nan nan nan nan nan nan nan nan nan nan nan nan nan nan nan nan nan nan nan nan nan nan 22 nan nan nan nan nan 21 21 21 21 nan nan nan 21 18 16 nan nan nan nan nan nan nan nan 26 29 32 37 41 43 43 42 40 37 35 33 31 27 22 19 nan 16 15 13 12 14 15 17 20 24 23 23 22 23 23 22 nan nan nan nan nan
nan nan nan nan nan nan nan nan nan nan nan nan nan nan nan nan nan nan nan nan nan nan nan nan nan nan nan nan nan nan nan nan nan nan nan nan nan nan nan 18 15 13 11 nan nan nan nan nan nan 27 29 32 37 40 42 43 43 40 37 35 36 33 28 24 22 nan 20 19 18 16 15 19 21 23 26 25 24 23 25 25 24 23 nan nan nan
nan nan nan nan nan nan nan nan nan nan nan nan nan nan nan nan nan nan nan nan nan nan nan nan nan nan nan nan nan nan 21 19 19 19 nan nan nan nan nan nan nan nan 17 16 15 nan nan nan nan nan nan nan 33 35 38 41 42 42 40 36 nan nan 34 31 27 25 24 nan nan 24 23 22 22 23 25 23 22 23 26 27 26 24 23 nan nan
nan nan nan nan nan nan nan nan nan nan nan nan nan nan nan nan nan nan nan nan nan nan nan nan nan nan nan nan nan nan nan nan nan nan nan nan nan nan nan nan nan nan nan nan nan nan nan nan nan nan nan nan 32 35 36 37 38 39 38 38 39 40 38 34 31 30 29 28 30 30 26 25 25 25 25 26 24 24 28 27 25 24 23 23 23
nan nan nan nan nan nan nan nan nan nan nan nan nan nan nan nan nan nan nan nan nan nan nan nan nan nan nan nan nan nan nan nan nan nan nan nan nan nan nan nan nan nan nan nan nan nan nan nan nan nan nan nan nan nan nan 37 37 34 38 37 40 40 38 36 35 35 34 32 31 32 31 29 28 28 27 27 25 24 25 26 26 25 24 24 23
nan nan nan nan nan nan nan nan nan nan nan nan nan nan nan nan nan nan nan nan nan nan nan nan nan nan nan nan nan nan nan nan nan nan nan nan nan nan nan nan nan nan nan nan nan nan nan nan nan nan nan nan nan nan nan nan 35 39 41 41 38 37 36 37 37 37 36 35 33 32 34 35 33 32 31 29 30 31 28 26 30 27 27 27 26
nan nan nan nan nan nan nan nan nan nan nan nan nan nan nan nan nan nan nan nan nan nan nan nan nan nan nan nan nan nan nan nan nan nan nan nan nan nan nan nan nan nan nan nan nan nan nan nan nan nan nan nan nan nan nan nan 31 33 39 41 39 36 36 35 35 nan nan nan nan nan 35 37 37 36 33 32 33 34 34 34 33 32 32 31 29
nan nan nan nan nan nan nan nan nan nan nan nan nan nan nan nan nan nan nan nan nan nan nan nan nan nan nan nan nan nan nan nan nan nan nan nan nan nan nan nan nan nan nan nan nan nan nan nan nan nan nan nan nan nan nan nan 30 37 35 33 36 34 33 nan nan nan nan nan nan nan nan nan nan 36 35 34 34 33 35 38 35 33 33 32 31
nan nan nan nan nan nan nan nan nan nan nan nan nan nan nan nan nan nan nan nan nan nan nan nan nan nan nan nan nan nan nan nan nan nan nan nan nan nan nan nan nan nan nan nan nan nan nan nan nan nan nan nan nan nan nan nan nan nan nan 28 29 30 nan nan nan nan nan nan nan nan nan nan nan nan nan nan nan 33 34 36 36 33 32 31 30
nan nan nan nan nan nan nan nan nan nan nan nan nan nan nan nan nan nan nan nan nan nan nan nan nan nan nan nan nan nan nan nan nan nan nan nan nan nan nan nan nan nan nan nan nan nan nan nan nan nan nan nan nan nan nan nan nan nan nan nan nan nan nan nan nan nan nan nan nan nan nan nan nan nan nan nan nan nan nan 31 32 32 31 28 28
nan nan nan nan nan nan nan nan nan nan nan nan nan nan nan nan nan nan nan nan nan nan nan nan nan nan nan nan nan nan nan nan nan nan nan nan nan nan nan nan nan nan nan nan nan nan nan nan nan nan nan nan nan nan nan nan nan nan nan nan nan nan nan nan nan nan nan nan nan nan nan nan nan nan nan nan nan nan nan nan 26 27 27 27 26
nan nan nan nan nan nan nan nan nan nan nan nan nan nan nan nan nan nan nan nan nan nan nan nan nan nan nan nan nan nan nan nan nan nan nan nan nan nan nan nan nan nan nan nan nan nan nan nan nan nan nan nan nan nan nan nan nan nan nan nan nan nan nan nan nan nan nan nan nan nan nan nan nan nan nan nan nan nan nan nan nan 24 25 26 26
nan nan nan nan nan nan nan nan nan nan nan nan nan nan nan nan nan nan nan nan nan nan nan nan nan nan nan nan nan nan nan nan nan nan nan nan nan nan nan nan nan nan nan nan nan nan nan nan nan nan nan nan nan nan nan nan nan nan nan nan nan nan nan nan nan nan nan nan nan nan nan nan nan nan nan nan nan nan nan nan nan nan nan nan nan
nan nan nan nan nan nan nan nan nan nan nan nan nan nan nan nan nan nan nan nan nan nan nan nan nan nan nan nan nan nan nan nan nan nan nan nan nan nan nan nan nan nan nan nan nan nan nan nan nan nan nan nan nan nan nan nan nan nan nan nan nan nan nan nan nan nan nan nan nan nan nan nan nan nan nan nan nan nan nan nan nan nan nan nan nan
nan nan nan nan nan nan nan nan nan nan nan nan nan nan nan nan nan nan nan nan nan nan nan nan nan nan nan nan nan nan nan nan nan nan nan nan nan nan nan nan nan nan nan nan nan nan nan nan nan nan nan nan nan nan nan nan nan nan nan nan nan nan nan nan nan nan nan nan nan nan nan nan nan nan nan nan nan nan nan nan nan nan nan nan nan
26 25 27 25 nan nan nan nan nan nan nan nan nan nan nan nan nan nan nan nan nan nan nan nan nan nan nan nan nan nan nan nan nan nan nan nan nan nan nan nan nan nan nan nan nan nan nan nan nan nan nan nan nan nan nan nan nan nan nan nan nan nan nan nan nan nan nan nan nan nan nan nan nan nan nan nan nan nan nan nan nan nan nan nan nan
31 27 25 24 25 26 25 24 24 nan nan nan nan nan nan nan nan nan nan nan nan nan nan nan nan nan nan nan nan nan nan nan nan nan nan nan nan nan nan nan nan nan nan nan nan nan nan nan nan nan nan nan nan nan nan nan nan nan nan nan nan nan nan nan nan nan nan nan nan nan nan nan nan nan nan nan nan nan nan nan nan nan nan nan nan
29 30 31 30 29 27 25 24 26 26 26 25 23 nan nan nan nan nan nan nan nan nan nan nan nan nan nan nan nan nan nan nan nan nan nan nan nan nan nan nan nan nan nan nan nan nan nan nan nan nan nan nan nan nan nan nan nan nan nan nan nan nan nan nan nan nan nan nan nan nan nan nan nan nan nan nan nan nan nan nan nan nan nan nan nan
28 28 29 30 32 31 nan 26 25 26 27 26 25 25 24 nan nan 23 23 nan nan nan nan nan nan nan nan nan nan nan nan nan nan nan nan nan nan nan nan nan nan nan nan nan nan nan nan nan nan nan nan nan nan nan nan nan nan nan nan nan nan nan nan nan nan nan nan nan nan nan nan nan nan nan nan nan nan nan nan nan nan nan nan nan nan
32 nan 31 31 32 34 31 29 30 28 27 27 27 26 25 25 26 nan nan nan nan nan nan nan nan nan nan nan nan nan nan nan nan nan nan nan nan nan nan nan nan nan nan nan nan nan nan nan nan nan nan nan nan nan nan nan nan nan nan nan nan nan nan nan nan nan nan nan nan nan nan nan nan nan nan nan nan nan nan nan nan nan nan nan nan
36 35 33 31 nan nan nan 29 nan nan 28 27 27 27 26 27 28 28 29 28 nan nan nan nan nan nan nan nan nan nan nan nan nan nan nan nan nan nan nan nan nan nan nan nan nan nan nan nan nan nan nan nan nan nan nan nan nan nan nan nan nan nan nan nan nan nan nan nan nan nan nan nan nan nan nan nan nan nan nan nan nan nan nan nan nan
35 36 36 35 33 34 32 29 26 nan 26 26 28 30 29 28 30 31 33 34 34 nan nan nan nan nan nan nan nan nan nan nan nan nan nan nan nan nan nan nan nan nan nan nan nan nan nan nan nan nan nan nan nan nan nan nan nan nan nan nan nan nan nan nan nan nan nan nan nan nan nan nan nan nan nan nan nan nan nan nan nan nan nan nan nan
38 38 39 38 37 35 33 32 32 32 33 33 32 31 33 34 35 35 37 37 37 36 nan nan nan nan nan nan nan nan nan nan nan nan nan nan nan nan nan nan nan nan nan nan nan nan nan nan nan nan nan nan nan nan nan nan nan nan nan nan nan nan nan nan nan nan nan nan nan nan nan nan nan nan nan nan nan nan nan nan nan nan nan nan nan
39 40 41 40 39 38 38 37 37 38 39 38 34 32 33 36 37 36 36 35 36 37 38 nan nan nan nan nan nan nan nan nan nan nan nan nan nan nan nan nan nan nan nan nan nan nan nan nan nan nan nan nan nan nan nan nan nan nan nan nan nan nan nan nan nan nan nan nan nan nan nan nan nan nan nan nan nan nan nan nan nan nan nan nan nan
42 44 42 41 41 43 44 44 45 44 43 40 38 37 38 36 37 39 39 40 41 43 43 43 nan nan nan nan nan nan nan nan nan nan nan nan nan nan nan nan nan nan nan nan nan nan nan nan nan nan nan nan nan nan nan nan nan nan nan nan nan nan nan nan nan nan nan nan nan nan nan nan nan nan nan nan nan nan nan nan nan nan nan nan nan
49 48 45 44 44 45 45 44 44 44 43 41 39 40 43 43 44 49 49 50 51 50 nan nan nan nan nan nan nan nan nan nan nan nan nan nan nan nan nan nan nan nan nan nan nan nan nan nan nan nan nan nan nan nan nan nan nan nan nan nan nan nan nan nan nan nan nan nan nan nan nan nan nan nan nan nan nan nan nan nan nan nan nan nan nan
54 51 51 50 50 52 54 53 51 49 49 47 46 44 45 48 50 53 51 52 53 53 52 nan nan nan nan nan nan nan nan nan nan nan nan nan nan nan nan nan nan nan nan nan nan nan nan nan nan nan nan nan nan nan nan nan nan nan nan nan nan nan nan nan nan nan nan nan nan nan nan nan nan nan nan nan nan nan nan nan nan nan nan nan nan
56 55 52 52 51 54 57 56 53 50 47 50 55 56 57 59 59 56 53 52 nan 54 nan nan nan nan nan nan nan nan nan nan nan nan nan nan nan nan nan nan nan nan nan nan nan nan nan nan nan nan nan nan nan nan nan nan nan nan nan nan nan nan nan nan nan nan nan nan nan nan nan nan nan nan nan nan nan nan nan nan nan nan nan nan nan
54 55 55 54 51 54 57 57 56 54 52 55 60 61 61 61 61 57 56 56 56 55 54 nan nan nan nan nan nan nan nan nan nan nan nan nan nan nan nan nan nan nan nan nan nan nan nan nan nan nan nan nan nan nan nan nan nan nan nan nan nan nan nan nan nan nan nan nan nan nan nan nan nan nan nan nan nan nan nan nan nan nan nan nan nan
52 52 52 55 54 58 58 58 60 59 57 57 61 63 64 66 63 60 nan nan nan nan nan nan nan nan nan nan nan nan nan nan nan nan nan nan nan nan nan nan nan nan nan nan nan nan nan nan nan nan nan nan nan nan nan nan nan nan nan nan nan nan nan nan nan nan nan nan nan nan nan nan nan nan nan nan nan nan nan nan nan nan nan nan nan
51 51 50 nan nan 59 59 58 59 60 57 56 59 62 63 64 63 60 59 nan nan nan nan nan nan nan nan nan nan nan nan nan nan nan nan nan nan nan nan nan nan nan nan nan nan nan nan nan nan nan nan nan nan nan nan nan nan nan nan nan nan nan nan nan nan nan nan nan nan nan nan nan nan nan nan nan nan nan nan nan nan nan nan nan nan
50 52 55 nan nan nan nan 58 60 61 57 56 58 61 62 61 58 nan nan nan nan nan nan nan nan nan nan nan nan nan nan nan nan nan nan nan nan nan nan nan nan nan nan nan nan nan nan nan nan nan nan nan nan nan nan nan nan nan nan nan nan nan nan nan nan nan nan nan nan nan nan nan nan nan nan nan nan nan nan nan nan nan nan nan nan
Wind_Direction
275 266 258 255 248 249 249 252 258 263 261 254 264 272 271 271 273 272 269 261 258 255 255 256 256 254 254 251 256 nan 264 266 254 242 236 237 239 242 247 245 239 242 246 243 242 243 245 245 245 nan nan nan nan nan nan nan nan nan nan 250 255 nan nan nan nan nan nan nan nan nan nan nan nan nan nan nan nan nan nan nan nan nan nan nan nan
262 260 266 259 255 247 247 250 266 268 261 248 247 253 268 283 285 285 278 269 263 263 262 258 257 252 246 251 nan 256 259 271 261 246 237 237 238 242 255 249 244 240 244 246 245 244 244 246 247 247 nan nan nan nan nan nan nan nan nan 248 253 255 nan nan nan nan nan nan nan nan nan nan nan nan nan nan nan nan nan nan nan nan nan nan nan
262 263 266 262 248 249 256 257 260 265 266 251 246 259 262 276 285 276 270 272 265 261 263 261 257 258 252 248 247 nan 260 261 260 251 243 238 238 241 248 256 254 248 241 243 244 245 245 246 247 248 248 nan nan nan nan nan nan nan nan 253 255 254 nan nan nan nan nan nan nan nan nan nan nan nan nan nan nan nan nan nan nan nan nan nan nan
267 271 258 251 249 252 253 270 279 277 271 268 255 253 263 268 269 267 263 269 269 261 259 261 257 261 261 252 252 252 nan 262 259 255 246 239 239 241 246 252 258 256 249 242 241 245 246 247 248 248 247 249 nan nan nan nan nan nan nan 257 261 260 260 263 nan nan nan nan nan nan nan nan nan nan nan nan nan nan nan nan nan nan nan nan nan
267 260 262 264 272 271 281 282 296 287 288 285 267 254 260 266 271 267 270 266 267 264 263 264 261 252 247 247 247 246 244 245 246 252 252 243 241 241 244 246 249 256 255 248 243 243 246 248 248 248 248 250 252 252 nan nan nan nan nan 259 262 263 265 269 268 nan nan nan nan nan nan nan nan nan nan nan nan nan nan nan nan nan nan nan nan
276 263 257 253 288 302 298 294 296 294 295 292 283 267 262 260 264 276 278 274 270 269 267 265 266 260 254 251 253 252 252 248 240 233 245 246 240 242 244 245 247 248 249 254 250 246 245 244 247 250 250 251 251 254 254 nan nan nan nan nan 263 263 263 265 270 nan nan nan nan nan nan nan nan nan nan nan nan nan nan nan nan nan nan nan nan
287 279 298 326 279 289 293 303 304 302 303 297 293 278 269 269 267 276 278 277 271 271 276 274 273 268 260 258 253 250 250 255 247 236 230 231 236 243 245 248 247 249 251 253 255 256 252 247 247 250 253 254 255 254 254 256 nan nan nan nan 264 263 262 nan 268 272 nan nan nan nan nan nan nan nan nan nan nan nan nan nan nan nan nan nan nan
304 313 318 306 299 294 297 305 312 308 310 303 292 285 282 274 269 278 285 281 276 270 272 273 272 272 269 262 257 252 251 253 252 241 232 229 230 230 241 247 248 250 254 255 257 258 262 257 251 248 250 255 257 255 253 257 257 nan 257 nan nan 264 263 nan 267 273 275 274 nan nan nan nan nan nan nan nan nan nan nan nan nan nan nan nan nan
279 277 294 295 296 297 301 300 307 306 305 300 295 292 291 283 275 274 283 283 277 273 271 274 274 274 269 265 261 257 253 252 249 243 234 232 225 230 233 235 244 254 252 254 258 256 263 265 259 254 250 250 255 255 255 257 261 259 258 257 261 nan nan nan 267 269 275 276 nan nan nan nan nan nan nan nan nan nan nan nan nan nan nan nan nan
288 280 282 290 292 299 301 298 300 301 301 297 290 282 283 284 282 272 275 278 273 274 275 276 279 278 274 268 260 258 254 251 248 243 238 234 231 230 232 237 241 240 244 251 255 256 258 263 265 258 256 253 253 256 259 259 262 264 264 262 261 nan nan 268 269 270 272 276 277 nan nan nan nan nan nan nan nan nan nan nan nan nan nan nan nan
309 310 302 294 290 291 295 299 296 295 296 288 282 279 278 280 286 279 272 272 275 274 275 272 277 277 275 271 266 260 259 256 247 245 243 239 236 235 237 236 237 241 243 244 243 251 257 257 255 253 254 260 258 259 262 259 260 261 263 266 264 268 270 271 272 273 272 272 274 276 nan nan nan nan nan nan nan nan nan nan nan nan nan nan nan
301 302 295 291 287 285 289 294 297 295 288 283 282 282 287 287 288 287 282 272 268 277 276 271 268 270 274 271 268 265 262 259 255 254 251 248 242 240 241 240 nan nan 245 246 246 246 246 249 251 252 252 259 266 261 261 260 258 257 258 264 266 269 272 274 275 276 275 274 273 276 276 nan nan nan nan nan nan nan nan nan nan nan nan nan nan
294 292 292 288 285 284 284 288 290 290 288 288 288 284 284 288 287 280 281 276 269 270 274 276 274 271 273 276 269 263 259 258 258 258 258 255 nan nan nan 246 nan nan 247 247 246 245 248 246 245 243 245 249 255 263 265 265 264 261 259 261 267 270 275 279 280 279 279 279 277 277 279 279 nan nan nan nan nan nan nan nan nan nan nan nan nan
287 290 286 286 285 288 289 290 291 289 290 291 290 285 287 288 285 277 268 276 274 276 281 276 272 281 282 281 nan 257 256 261 nan nan 258 258 nan nan nan nan nan nan 254 253 248 244 242 244 243 242 241 239 241 242 249 257 261 268 265 262 264 271 272 279 285 284 282 283 282 280 279 283 nan nan nan nan nan nan nan nan nan nan nan nan nan
nan 279 288 290 290 288 288 290 289 290 289 293 293 294 296 289 283 284 277 273 277 279 278 275 282 280 281 280 nan nan 261 263 266 264 264 263 nan nan nan nan nan nan nan 254 257 251 242 240 241 243 243 246 244 247 248 250 255 266 269 267 266 267 273 272 281 287 286 286 287 286 282 285 287 nan nan nan nan nan nan nan nan nan nan nan nan
nan nan nan 281 287 288 286 289 291 289 292 292 291 294 293 290 285 283 284 279 277 273 273 275 273 279 279 nan 283 nan nan 273 273 270 267 266 nan nan 261 265 nan nan nan nan nan 255 247 239 238 238 241 245 245 246 249 250 253 257 263 266 266 268 270 272 270 283 288 288 289 290 285 287 290 291 nan nan nan nan nan nan nan nan nan nan nan
nan nan nan nan 280 285 288 288 287 288 287 288 286 287 286 284 285 283 282 285 283 277 270 269 272 276 282 nan nan nan nan 278 274 272 269 266 265 266 269 270 267 nan 258 260 256 251 242 239 237 237 238 240 243 246 250 252 251 251 251 249 252 261 266 262 264 267 279 288 289 292 288 285 289 292 291 nan nan nan nan nan nan nan nan nan nan
nan nan nan nan nan nan nan nan nan nan 284 284 283 281 282 282 285 286 284 280 280 276 273 270 272 271 269 275 275 nan 278 275 nan nan 269 270 267 267 270 273 nan 269 260 251 247 247 247 239 236 236 235 238 241 243 248 250 251 252 252 253 261 259 258 262 259 255 258 276 287 289 289 291 290 291 290 291 nan nan nan nan nan nan nan nan nan
nan nan nan nan nan nan nan nan nan nan nan nan nan 278 277 278 277 273 279 280 277 275 278 274 269 269 272 271 270 270 272 271 271 nan nan 263 261 nan nan 278 nan nan 270 nan nan nan 244 244 241 239 237 237 238 239 240 244 251 254 256 255 258 nan 263 261 259 259 260 266 276 287 293 292 292 291 292 294 297 296 nan nan nan nan nan nan nan
nan nan nan nan nan nan nan nan nan nan nan nan nan nan nan nan nan nan nan nan nan nan nan nan 275 nan nan nan nan nan 272 271 272 270 nan nan nan 258 262 273 nan nan nan nan nan nan nan nan 243 246 243 238 236 236 240 242 242 242 246 252 252 256 260 262 nan 260 262 266 268 274 284 286 291 289 291 294 298 298 298 299 nan nan nan nan nan
nan nan nan nan nan nan nan nan nan nan nan nan nan nan nan nan nan nan nan nan nan nan nan nan nan nan nan nan nan nan nan nan nan nan nan nan nan nan nan 261 261 259 270 nan nan nan nan nan nan 247 251 247 242 240 240 242 243 242 242 248 252 255 258 261 262 nan 257 253 254 262 268 263 265 272 285 290 294 299 299 301 302 302 nan nan nan
nan nan nan nan nan nan nan nan nan nan nan nan nan nan nan nan nan nan nan nan nan nan nan nan nan nan nan nan nan nan 267 265 264 263 nan nan nan nan nan nan nan nan 262 269 274 nan nan nan nan nan nan nan 253 248 244 243 243 243 242 248 nan nan 253 256 260 264 265 nan nan 250 251 255 260 269 276 286 292 295 294 299 301 305 309 nan nan
nan nan nan nan nan nan nan nan nan nan nan nan nan nan nan nan nan nan nan nan nan nan nan nan nan nan nan nan nan nan nan nan nan nan nan nan nan nan nan nan nan nan nan nan nan nan nan nan nan nan nan nan 257 257 253 250 248 247 246 243 247 248 247 249 253 258 260 261 261 259 259 260 261 263 269 277 284 290 291 299 302 304 304 306 304
nan nan nan nan nan nan nan nan nan nan nan nan nan nan nan nan nan nan nan nan nan nan nan nan nan nan nan nan nan nan nan nan nan nan nan nan nan nan nan nan nan nan nan nan nan nan nan nan nan nan nan nan nan nan nan 256 256 257 253 248 248 249 251 254 256 258 260 261 263 263 260 261 263 264 267 272 274 273 282 291 294 296 298 301 302
nan nan nan nan nan nan nan nan nan nan nan nan nan nan nan nan nan nan nan nan nan nan nan nan nan nan nan nan nan nan nan nan nan nan nan nan nan nan nan nan nan nan nan nan nan nan nan nan nan nan nan nan nan nan nan nan 258 262 263 255 257 253 251 252 255 257 257 257 261 263 260 257 257 261 264 265 266 271 275 277 276 278 284 287 291
nan nan nan nan nan nan nan nan nan nan nan nan nan nan nan nan nan nan nan nan nan nan nan nan nan nan nan nan nan nan nan nan nan nan nan nan nan nan nan nan nan nan nan nan nan nan nan nan nan nan nan nan nan nan nan nan 237 256 264 259 258 259 258 256 254 nan nan nan nan nan 264 257 255 256 259 262 261 259 265 272 275 274 276 279 283
nan nan nan nan nan nan nan nan nan nan nan nan nan nan nan nan nan nan nan nan nan nan nan nan nan nan nan nan nan nan nan nan nan nan nan nan nan nan nan nan nan nan nan nan nan nan nan nan nan nan nan nan nan nan nan nan 231 237 233 243 254 262 261 nan nan nan nan nan nan nan nan nan nan 255 256 259 261 260 258 259 266 271 273 274 278
nan nan nan nan nan nan nan nan nan nan nan nan nan nan nan nan nan nan nan nan nan nan nan nan nan nan nan nan nan nan nan nan nan nan nan nan nan nan nan nan nan nan nan nan nan nan nan nan nan nan nan nan nan nan nan nan nan nan nan 246 245 247 nan nan nan nan nan nan nan nan nan nan nan nan nan nan nan 257 256 260 262 264 268 272 273
nan nan nan nan nan nan nan nan nan nan nan nan nan nan nan nan nan nan nan nan nan nan nan nan nan nan nan nan nan nan nan nan nan nan nan nan nan nan nan nan nan nan nan nan nan nan nan nan nan nan nan nan nan nan nan nan nan nan nan nan nan nan nan nan nan nan nan nan nan nan nan nan nan nan nan nan nan nan nan 256 256 258 264 268 271
nan nan nan nan nan nan nan nan nan nan nan nan nan nan nan nan nan nan nan nan nan nan nan nan nan nan nan nan nan nan nan nan nan nan nan nan nan nan nan nan nan nan nan nan nan nan nan nan nan nan nan nan nan nan nan nan nan nan nan nan nan nan nan nan nan nan nan nan nan nan nan nan nan nan nan nan nan nan nan nan 257 254 256 264 271
nan nan nan nan nan nan nan nan nan nan nan nan nan nan nan nan nan nan nan nan nan nan nan nan nan nan nan nan nan nan nan nan nan nan nan nan nan nan nan nan nan nan nan nan nan nan nan nan nan nan nan nan nan nan nan nan nan nan nan nan nan nan nan nan nan nan nan nan nan nan nan nan nan nan nan nan nan nan nan nan nan 259 256 257 265
nan nan nan nan nan nan nan nan nan nan nan nan nan nan nan nan nan nan nan nan nan nan nan nan nan nan nan nan nan nan nan nan nan nan nan nan nan nan nan nan nan nan nan nan nan nan nan nan nan nan nan nan nan nan nan nan nan nan nan nan nan nan nan nan nan nan nan nan nan nan nan nan nan nan nan nan nan nan nan nan nan nan nan nan nan
nan nan nan nan nan nan nan nan nan nan nan nan nan nan nan nan nan nan nan nan nan nan nan nan nan nan nan nan nan nan nan nan nan nan nan nan nan nan nan nan nan nan nan nan nan nan nan nan nan nan nan nan nan nan nan nan nan nan nan nan nan nan nan nan nan nan nan nan nan nan nan nan nan nan nan nan nan nan nan nan nan nan nan nan nan
nan nan nan nan nan nan nan nan nan nan nan nan nan nan nan nan nan nan nan nan nan nan nan nan nan nan nan nan nan nan nan nan nan nan nan nan nan nan nan nan nan nan nan nan nan nan nan nan nan nan nan nan nan nan nan nan nan nan nan nan nan nan nan nan nan nan nan nan nan nan nan nan nan nan nan nan nan nan nan nan nan nan nan nan nan
269 282 289 289 nan nan nan nan nan nan nan nan nan nan nan nan nan nan nan nan nan nan nan nan nan nan nan nan nan nan nan nan nan nan nan nan nan nan nan nan nan nan nan nan nan nan nan nan nan nan nan nan nan nan nan nan nan nan nan nan nan nan nan nan nan nan nan nan nan nan nan nan nan nan nan nan nan nan nan nan nan nan nan nan nan
268 266 269 278 288 292 289 285 289 nan nan nan nan nan nan nan nan nan nan nan nan nan nan nan nan nan nan nan nan nan nan nan nan nan nan nan nan nan nan nan nan nan nan nan nan nan nan nan nan nan nan nan nan nan nan nan nan nan nan nan nan nan nan nan nan nan nan nan nan nan nan nan nan nan nan nan nan nan nan nan nan nan nan nan nan
269 267 264 265 265 265 268 277 287 289 288 288 291 nan nan nan nan nan nan nan nan nan nan nan nan nan nan nan nan nan nan nan nan nan nan nan nan nan nan nan nan nan nan nan nan nan nan nan nan nan nan nan nan nan nan nan nan nan nan nan nan nan nan nan nan nan nan nan nan nan nan nan nan nan nan nan nan nan nan nan nan nan nan nan nan
272 270 268 267 270 271 nan 266 266 275 281 284 290 295 295 nan nan 287 286 nan nan nan nan nan nan nan nan nan nan nan nan nan nan nan nan nan nan nan nan nan nan nan nan nan nan nan nan nan nan nan nan nan nan nan nan nan nan nan nan nan nan nan nan nan nan nan nan nan nan nan nan nan nan nan nan nan nan nan nan nan nan nan nan nan nan
268 nan 273 271 273 272 270 268 264 263 269 277 282 287 291 292 291 nan nan nan nan nan nan nan nan nan nan nan nan nan nan nan nan nan nan nan nan nan nan nan nan nan nan nan nan nan nan nan nan nan nan nan nan nan nan nan nan nan nan nan nan nan nan nan nan nan nan nan nan nan nan nan nan nan nan nan nan nan nan nan nan nan nan nan nan
266 270 275 277 nan nan nan 282 nan nan 260 270 277 278 281 285 285 284 284 284 nan nan nan nan nan nan nan nan nan nan nan nan nan nan nan nan nan nan nan nan nan nan nan nan nan nan nan nan nan nan nan nan nan nan nan nan nan nan nan nan nan nan nan nan nan nan nan nan nan nan nan nan nan nan nan nan nan nan nan nan nan nan nan nan nan
272 273 276 277 276 276 279 284 284 nan 271 273 274 274 275 277 278 280 281 280 279 nan nan nan nan nan nan nan nan nan nan nan nan nan nan nan nan nan nan nan nan nan nan nan nan nan nan nan nan nan nan nan nan nan nan nan nan nan nan nan nan nan nan nan nan nan nan nan nan nan nan nan nan nan nan nan nan nan nan nan nan nan nan nan nan
276 274 275 273 272 274 275 277 278 277 276 274 275 281 281 281 282 280 278 277 275 274 nan nan nan nan nan nan nan nan nan nan nan nan nan nan nan nan nan nan nan nan nan nan nan nan nan nan nan nan nan nan nan nan nan nan nan nan nan nan nan nan nan nan nan nan nan nan nan nan nan nan nan nan nan nan nan nan nan nan nan nan nan nan nan
276 277 278 278 276 275 276 277 277 278 277 276 281 282 284 286 281 279 277 274 274 275 275 nan nan nan nan nan nan nan nan nan nan nan nan nan nan nan nan nan nan nan nan nan nan nan nan nan nan nan nan nan nan nan nan nan nan nan nan nan nan nan nan nan nan nan nan nan nan nan nan nan nan nan nan nan nan nan nan nan nan nan nan nan nan
275 274 274 275 275 275 276 277 278 280 279 281 287 286 285 283 279 278 276 276 277 280 281 283 nan nan nan nan nan nan nan nan nan nan nan nan nan nan nan nan nan nan nan nan nan nan nan nan nan nan nan nan nan nan nan nan nan nan nan nan nan nan nan nan nan nan nan nan nan nan nan nan nan nan nan nan nan nan nan nan nan nan nan nan nan
274 275 275 274 272 270 270 271 272 273 275 274 277 286 288 287 285 282 279 281 283 284 nan nan nan nan nan nan nan nan nan nan nan nan nan nan nan nan nan nan nan nan nan nan nan nan nan nan nan nan nan nan nan nan nan nan nan nan nan nan nan nan nan nan nan nan nan nan nan nan nan nan nan nan nan nan nan nan nan nan nan nan nan nan nan
273 273 272 274 273 272 270 270 270 270 271 267 269 276 283 286 290 287 281 280 279 278 279 nan nan nan nan nan nan nan nan nan nan nan nan nan nan nan nan nan nan nan nan nan nan nan nan nan nan nan nan nan nan nan nan nan nan nan nan nan nan nan nan nan nan nan nan nan nan nan nan nan nan nan nan nan nan nan nan nan nan nan nan nan nan
271 272 272 272 272 273 273 273 272 271 270 269 274 275 278 279 278 277 277 276 nan 276 nan nan nan nan nan nan nan nan nan nan nan nan nan nan nan nan nan nan nan nan nan nan nan nan nan nan nan nan nan nan nan nan nan nan nan nan nan nan nan nan nan nan nan nan nan nan nan nan nan nan nan nan nan nan nan nan nan nan nan nan nan nan nan
269 269 269 269 271 274 275 276 275 273 271 271 277 279 279 278 276 275 276 276 276 275 272 nan nan nan nan nan nan nan nan nan nan nan nan nan nan nan nan nan nan nan nan nan nan nan nan nan nan nan nan nan nan nan nan nan nan nan nan nan nan nan nan nan nan nan nan nan nan nan nan nan nan nan nan nan nan nan nan nan nan nan nan nan nan
270 270 270 271 272 273 274 275 276 276 275 275 277 278 277 276 275 276 nan nan nan nan nan nan nan nan nan nan nan nan nan nan nan nan nan nan nan nan nan nan nan nan nan nan nan nan nan nan nan nan nan nan nan nan nan nan nan nan nan nan nan nan nan nan nan nan nan nan nan nan nan nan nan nan nan nan nan nan nan nan nan nan nan nan nan
269 272 272 nan nan 274 276 276 278 279 277 275 276 275 274 273 274 276 276 nan nan nan nan nan nan nan nan nan nan nan nan nan nan nan nan nan nan nan nan nan nan nan nan nan nan nan nan nan nan nan nan nan nan nan nan nan nan nan nan nan nan nan nan nan nan nan nan nan nan nan nan nan nan nan nan nan nan nan nan nan nan nan nan nan nan
269 270 270 nan nan nan nan 276 278 278 277 276 276 276 276 276 275 nan nan nan nan nan nan nan nan nan nan nan nan nan nan nan nan nan nan nan nan nan nan nan nan nan nan nan nan nan nan nan nan nan nan nan nan nan nan nan nan nan nan nan nan nan nan nan nan nan nan nan nan nan nan nan nan nan nan nan nan nan nan nan nan nan nan nan nan